Weather History for Marathon, FL

Change the Weather History Date:

Monday, December 9, 2013

  Actual Average Record
Temperature  
Mean Temperature 80 °F 73 °F  
Max Temperature 83 °F 78 °F 84 °F (2004)
Min Temperature 76 °F 68 °F 53 °F (2010)
Degree Days  
Heating Degree Days 0 1  
Month to date heating degree days 0 2  
Since 1 July heating degree days 1 3  
Cooling Degree Days 15 8  
Month to date cooling degree days 108 79  
Year to date cooling degree days 5364 4843  
Growing Degree Days 28 (Base 50)    
Moisture  
Dew Point 69 °F    
Average Humidity 69    
Maximum Humidity 79    
Minimum Humidity 58    
Precipitation  
Precipitation 0.02 in 0.08 in 0.76 in (2000)
Month to date precipitation 0.08 0.61  
Year to date precipitation 49.65 44.76  
Snow  
Snow 0.00 in - - ()
Month to date snowfall 0.0  
Since 1 July snowfall 0.0  
Snow Depth 0.00 in    
Sea Level Pressure  
Sea Level Pressure 30.12 in    
Wind  
Wind Speed 9 mph (ESE)    
Max Wind Speed 15 mph    
Max Gust Speed 23 mph    
Visibility 10 miles    
Events Rain    
T = Trace of Precipitation, MM = Missing Value Source: NWS Daily Summary

Daily Weather History Graph

Daily Weather History Graph

Search for Another Location

Airport:

Trip Planner

Search our weather history database for the weather conditions in past years. The results will help you decide how hot, cold, wet, or windy it might be!

Date:

Astronomy

Dec. 09, 2013 Rise Set
Actual Time 6:57 AM EST 5:36 PM EST
Civil Twilight 6:32 AM EST 6:00 PM EST
Nautical Twilight 6:04 AM EST 6:29 PM EST
Astronomical Twilight 5:36 AM EST 6:57 PM EST
Moon 12:25 PM EST (12/9) No Moon Set
Length of Visible Light 11h 28m
Length of Day
10h 38m
Waxing Crescent, 51% of the Moon is Illuminated
Dec 9
Waxing Crescent
Dec 17
Full
Dec 25
Last Quarter
Jan 1
New
Jan 7
First Quarter

Hourly Weather History & Observations

Time (EST) Temp. Heat Index Dew Point Humidity Pressure Visibility Wind Dir Wind Speed Gust Speed Precip Events Conditions
12:53 AM 79.0 °F - 71.1 °F 77% 30.12 in 10.0 mi ESE 12.7 mph 20.7 mph N/A   Scattered Clouds
1:53 AM 78.1 °F - 71.1 °F 79% 30.11 in 10.0 mi ESE 11.5 mph 18.4 mph N/A   Scattered Clouds
2:53 AM 78.1 °F - 70.0 °F 76% 30.11 in 10.0 mi ESE 10.4 mph 20.7 mph N/A   Partly Cloudy
3:53 AM 78.1 °F - 70.0 °F 76% 30.12 in 10.0 mi ESE 8.1 mph - N/A   Clear
4:53 AM 77.0 °F - 70.0 °F 79% 30.12 in 10.0 mi East 6.9 mph - N/A   Clear
5:53 AM 77.0 °F - 70.0 °F 79% 30.12 in 10.0 mi East 4.6 mph - N/A   Mostly Cloudy
6:10 AM 78.1 °F - 71.1 °F 79% 30.12 in 10.0 mi East 6.9 mph - N/A   Mostly Cloudy
6:35 AM 75.9 °F - 72.0 °F 87% 30.13 in 10.0 mi ESE 10.4 mph - 0.01 in Rain Light Rain
6:53 AM 77.0 °F - 69.1 °F 76% 30.14 in 10.0 mi ESE 8.1 mph 17.3 mph 0.01 in   Overcast
7:53 AM 75.9 °F - 70.0 °F 82% 30.15 in 9.0 mi East 4.6 mph - 0.01 in Rain Light Rain
8:53 AM 79.0 °F - 69.1 °F 72% 30.16 in 10.0 mi ESE 11.5 mph 21.9 mph 0.00 in   Clear
9:53 AM 81.0 °F 83.8 °F 68.0 °F 65% 30.17 in 10.0 mi ESE 9.2 mph 19.6 mph N/A   Clear
10:53 AM 82.0 °F 84.5 °F 66.9 °F 60% 30.17 in 10.0 mi ESE 11.5 mph 21.9 mph N/A   Clear
11:53 AM 82.0 °F 84.5 °F 66.9 °F 60% 30.15 in 10.0 mi East 11.5 mph 18.4 mph N/A   Clear
12:53 PM 82.0 °F 84.9 °F 68.0 °F 62% 30.12 in 10.0 mi ESE 8.1 mph 19.6 mph N/A   Clear
1:53 PM 82.0 °F 85.5 °F 69.1 °F 65% 30.09 in 10.0 mi East 10.4 mph - N/A   Scattered Clouds
2:53 PM 82.0 °F 85.5 °F 69.1 °F 65% 30.08 in 10.0 mi ESE 9.2 mph 19.6 mph N/A   Partly Cloudy
3:53 PM 81.0 °F 84.4 °F 70.0 °F 69% 30.09 in 10.0 mi East 9.2 mph 16.1 mph N/A   Scattered Clouds
4:53 PM 79.0 °F - 69.1 °F 72% 30.09 in 10.0 mi East 10.4 mph 16.1 mph N/A   Partly Cloudy
5:53 PM 78.1 °F - 68.0 °F 71% 30.10 in 10.0 mi East 6.9 mph - N/A   Partly Cloudy
6:53 PM 78.1 °F - 68.0 °F 71% 30.12 in 10.0 mi East 6.9 mph - N/A   Clear
7:53 PM 78.1 °F - 69.1 °F 74% 30.12 in 10.0 mi East 8.1 mph - N/A   Clear
8:53 PM 78.1 °F - 69.1 °F 74% 30.13 in 10.0 mi ESE 5.8 mph - N/A   Clear
9:53 PM 78.1 °F - 69.1 °F 74% 30.13 in 10.0 mi East 6.9 mph - N/A   Clear
10:53 PM 78.1 °F - 70.0 °F 76% 30.12 in 10.0 mi East 8.1 mph - N/A   Clear
11:53 PM 78.1 °F - 70.0 °F 76% 30.11 in 10.0 mi East 8.1 mph - N/A   Partly Cloudy